FW6120 Weather Reports


time (UTC)temp
C
wind
direction
speed
KPH
gust
KPH
rain 1hr
cm
rain 24hr
cm
rain mn
cm
humidity
%
barometer
mb
20260505184801 15 317 6.4 11.3 0.00 0.00 0.00 82 1017.4
20260505184259 15 267 4.8 6.4 0.00 0.00 0.00 80 1017.1
20260505183802 15 259 3.2 6.4 0.00 0.00 0.00 79 1017.3
20260505183258 15 212 6.4 9.7 0.00 0.00 0.00 80 1017.3
20260505182801 15 222 3.2 9.7 0.00 0.00 0.00 79 1017.2
20260505182258 15 219 3.2 9.7 0.00 0.00 0.00 78 1017.3
20260505181800 15 226 4.8 9.7 0.00 0.00 0.00 80 1017.0
20260505181542 15 258 3.2 9.7 0.00 0.00 0.00 79 1017.0
20260505180801 15 222 6.4 11.3 0.00 0.00 0.00 80 1017.2
20260505180258 14 240 8.0 11.3 0.00 0.00 0.00 81 1017.2
20260505175758 14 259 0.0 9.7 0.00 0.00 0.00 78 1017.2
20260505175258 14 247 0.0 12.9 0.00 0.00 0.00 85 1017.0
20260505174801 14 221 4.8 12.9 0.00 0.00 0.00 82 1017.2
20260505174258 13 263 3.2 9.7 0.00 0.00 0.00 85 1017.3
20260505173758 13 225 3.2 6.4 0.00 0.00 0.00 82 1017.2
20260505173605 13 220 0.0 6.4 0.00 0.00 0.00 82 1016.9
20260505172758 13 220 1.6 4.8 0.00 0.00 0.00 84 1016.9
20260505172301 13 234 1.6 6.4 0.00 0.00 0.00 85 1016.9
20260505171757 13 254 1.6 6.4 0.00 0.00 0.00 87 1017.0
20260505171430 13 212 4.8 9.7 0.00 0.00 0.00 87 1016.8
20260505170258 12 250 1.6 9.7 0.00 0.00 0.00 89 1016.9
20260505165757 12 255 3.2 9.7 0.00 0.00 0.00 89 1016.9
20260505165258 12 234 3.2 9.7 0.00 0.00 0.00 88 1016.8
20260505165108 12 267 6.4 9.7 0.00 0.00 0.00 89 1016.8
20260505164606 12 242 1.6 6.4 0.00 0.00 0.00 89 1016.7
20260505164107 12 232 3.2 9.7 0.00 0.00 0.00 89 1016.8
20260505163258 12 174 3.2 9.7 0.00 0.00 0.00 90 1016.8
20260505162800 12 268 1.6 9.7 0.00 0.00 0.00 90 1016.7
20260505162259 12 271 6.4 9.7 0.00 0.00 0.00 89 1016.6
20260505161800 12 235 0.0 6.4 0.00 0.00 0.00 89 1016.7
20260505161258 12 216 4.8 6.4 0.00 0.00 0.00 89 1016.5
20260505161152 12 225 3.2 6.4 0.00 0.00 0.00 89 1016.6
20260505160613 12 180 3.2 6.4 0.00 0.00 0.00 89 1016.4
20260505153258 12 225 3.2 6.4 0.00 0.00 0.00 92 1016.3
20260505152758 12 229 3.2 6.4 0.00 0.00 0.00 91 1016.5
20260505152258 11 250 1.6 4.8 0.00 0.00 0.00 92 1016.5
20260505151801 11 261 1.6 6.4 0.00 0.00 0.00 92 1016.5
20260505151258 11 267 3.2 6.4 0.00 0.00 0.00 92 1016.4
20260505150758 11 238 3.2 9.7 0.00 0.00 0.00 92 1016.4
20260505150306 12 260 3.2 9.7 0.00 0.00 0.00 92 1016.5
20260505140301 11 209 0.0 1.6 0.00 0.00 0.00 96 1015.9
20260505140131 11 209 0.0 1.6 0.00 0.00 0.00 96 1015.8
20260505130134 11 210 0.0 0.0 0.00 0.00 0.00 96 1015.6
20260505124759 11 210 0.0 0.0 0.00 0.00 0.00 96 1015.4
20260505124611 11 210 0.0 0.0 0.00 0.00 0.00 95 1015.4
20260505123800 11 210 0.0 0.0 0.00 0.00 0.00 95 1015.3
20260505123301 11 210 0.0 0.0 0.00 0.00 0.00 95 1015.4
20260505123132 11 210 0.0 0.0 0.00 0.00 0.00 95 1015.5
20260505122305 11 210 0.0 0.0 0.00 0.00 0.00 95 1015.4
20260505121802 11 210 0.0 0.0 0.00 0.00 0.00 95 1015.4
20260505121300 11 165 0.0 0.0 0.00 0.00 0.00 94 1015.4
20260505120800 11 112 0.0 0.0 0.00 0.00 0.00 94 1015.3
20260505120614 11 112 0.0 0.0 0.00 0.00 0.00 94 1015.5
20260505115758 11 112 0.0 0.0 0.00 0.00 0.00 94 1015.4
20260505115258 11 112 0.0 0.0 0.00 0.00 0.00 94 1015.3
20260505114758 11 112 0.0 0.0 0.00 0.00 0.00 94 1015.3
20260505114259 11 112 0.0 1.6 0.00 0.00 0.00 93 1015.3
20260505113817 11 112 0.0 3.2 0.00 0.00 0.00 93 1015.6
20260505113258 11 112 1.6 3.2 0.00 0.00 0.00 93 1015.5
20260505112758 11 144 0.0 1.6 0.00 0.00 0.00 93 1015.2
20260505112258 11 145 0.0 1.6 0.00 0.00 0.00 93 1015.4
20260505111759 11 145 0.0 1.6 0.00 0.00 0.00 93 1015.5
20260505111258 11 145 0.0 1.6 0.00 0.00 0.00 93 1015.4
20260505110808 11 146 0.0 3.2 0.00 0.00 0.00 93 1015.2
20260505110258 11 146 1.6 3.2 0.00 0.00 0.00 93 1015.1
20260505101759 11 317 0.0 3.2 0.00 0.00 0.00 94 1014.9
20260505101259 11 286 0.0 1.6 0.00 0.00 0.00 94 1015.0
20260505100757 11 345 1.6 3.2 0.00 0.00 0.00 94 1014.9
20260505100630 11 345 0.0 3.2 0.00 0.00 0.00 94 1015.0
20260505095800 10 233 1.6 1.6 0.00 0.00 0.00 94 1014.9
20260505095258 10 232 0.0 1.6 0.00 0.00 0.00 94 1014.9
20260505094800 10 232 0.0 3.2 0.00 0.00 0.00 93 1014.9
20260505094301 11 233 0.0 3.2 0.00 0.00 0.00 94 1014.8
20260505093800 10 231 0.0 4.8 0.00 0.00 0.00 94 1014.5
20260505093301 10 232 1.6 9.7 0.00 0.00 0.00 94 1014.7
20260505092758 10 215 1.6 9.7 0.00 0.00 0.00 95 1014.8
20260505092257 10 231 4.8 11.3 0.00 0.00 0.00 95 1014.7
20260505091801 10 266 0.0 11.3 0.00 0.00 0.00 95 1014.7
20260505091258 10 259 1.6 6.4 0.00 0.00 0.00 95 1014.7
20260505090757 10 290 0.0 9.7 0.00 0.00 0.00 95 1014.6
20260505090258 10 257 3.2 9.7 0.00 0.00 0.00 96 1014.5
20260505090125 10 227 0.0 0.0 0.00 0.00 0.00 96 1014.5
20260505085257 10 227 0.0 0.0 0.00 0.00 0.00 96 1014.3
20260505084758 10 227 0.0 0.0 0.00 0.00 0.00 96 1014.2
20260505084259 9 228 0.0 0.0 0.00 0.00 0.00 94 1014.3
20260505083758 10 227 0.0 0.0 0.00 0.00 0.00 93 1014.1
20260505083300 10 227 0.0 1.6 0.00 0.00 0.00 94 1014.1
20260505082758 10 227 0.0 3.2 0.00 0.00 0.00 94 1014.1
20260505082258 10 227 0.0 3.2 0.00 0.00 0.00 95 1013.9
20260505081758 10 247 1.6 3.2 0.00 0.00 0.00 95 1014.0
20260505081259 10 137 0.0 3.2 0.00 0.00 0.00 94 1014.1
20260505080757 10 236 0.0 0.0 0.00 0.00 0.00 94 1013.9
20260505080652 10 236 0.0 0.0 0.00 0.00 0.00 94 1013.9
20260505075757 10 236 0.0 0.0 0.00 0.00 0.00 93 1013.8
20260505075611 10 235 0.0 1.6 0.00 0.00 0.00 92 1013.8
20260505075120 10 236 0.0 1.6 0.00 0.00 0.00 92 1013.8
20260505074302 10 236 0.0 3.2 0.00 0.00 0.00 93 1013.7
20260505073800 10 235 1.6 3.2 0.00 0.00 0.00 92 1013.6
20260505073301 10 240 0.0 3.2 0.00 0.00 0.00 92 1013.5
20260505073119 10 240 1.6 1.6 0.00 0.00 0.00 91 1013.5
20260505072305 11 240 0.0 0.0 0.00 0.00 0.00 89 1013.5
20260505072124 11 240 0.0 0.0 0.00 0.00 0.00 89 1013.5
20260505071301 11 240 0.0 0.0 0.00 0.00 0.00 89 1013.5
20260505070803 11 240 0.0 0.0 0.00 0.00 0.00 89 1013.2
20260505070301 11 240 0.0 0.0 0.00 0.00 0.00 88 1013.1
20260505065802 11 240 0.0 1.6 0.00 0.00 0.00 87 1013.0
20260505065304 12 240 0.0 4.8 0.00 0.00 0.00 87 1013.1
20260505064801 12 241 1.6 4.8 0.00 0.00 0.00 87 1013.1
20260505064305 12 236 0.0 0.0 0.00 0.00 0.00 88 1013.2
20260505063801 12 236 0.0 3.2 0.00 0.00 0.00 87 1012.9
20260505063302 12 236 0.0 4.8 0.00 0.00 0.00 88 1013.0
20260505062801 11 273 1.6 4.8 0.00 0.00 0.00 90 1012.7
20260505062304 11 183 0.0 0.0 0.00 0.00 0.00 89 1012.7
20260505061802 12 183 0.0 0.0 0.00 0.00 0.00 88 1012.6
20260505061304 12 184 0.0 0.0 0.00 0.00 0.00 87 1012.7
20260505060804 12 183 0.0 1.6 0.00 0.00 0.00 87 1012.6
20260505060713 12 186 0.0 3.2 0.00 0.00 0.00 87 1012.5
20260505060130 12 185 0.0 3.2 0.00 0.00 0.00 86 1012.5
20260505055305 12 211 1.6 3.2 0.00 0.00 0.00 86 1012.6
20260505054801 12 91 0.0 1.6 0.00 0.00 0.00 85 1012.7
20260505054301 12 91 0.0 3.2 0.00 0.00 0.00 85 1012.6
20260505053803 12 91 1.6 3.2 0.00 0.00 0.00 84 1012.3
20260505053312 13 91 0.0 1.6 0.00 0.00 0.00 84 1012.5
20260505052804 13 91 0.0 3.2 0.00 0.00 0.00 84 1012.4
20260505052305 13 91 0.0 4.8 0.00 0.00 0.00 84 1012.4
20260505051804 13 91 0.0 4.8 0.00 0.00 0.00 83 1012.4
20260505051306 13 94 0.0 3.2 0.00 0.00 0.00 83 1012.5
20260505050803 13 96 0.0 0.0 0.00 0.00 0.00 81 1012.1
20260505050302 13 96 0.0 1.6 0.00 0.00 0.00 81 1012.3
20260505041300 16 291 0.0 0.0 0.00 0.00 0.00 71 1012.0
20260505040801 16 291 0.0 0.0 0.00 0.00 0.00 70 1011.7
20260505040454 16 291 0.0 0.0 0.00 0.00 0.00 69 1011.7
20260505035304 17 291 0.0 1.6 0.00 0.00 0.00 65 1011.9
20260505034802 17 291 0.0 1.6 0.00 0.00 0.00 64 1011.7
20260505034303 17 291 0.0 1.6 0.00 0.00 0.00 64 1011.5
20260505033801 18 291 0.0 11.3 0.00 0.00 0.00 62 1011.4
20260505033611 18 292 3.2 11.3 0.00 0.00 0.00 61 1011.4
20260505032801 18 330 1.6 6.4 0.00 0.00 0.00 61 1011.4
20260505032301 18 330 1.6 6.4 0.00 0.00 0.00 60 1011.5
20260505031801 18 0 3.2 6.4 0.00 0.00 0.00 59 1011.2
20260505031302 19 302 1.6 9.7 0.00 0.00 0.00 58 1011.2
20260505031114 19 292 0.0 9.7 0.00 0.00 0.00 56 1011.2
20260505030302 20 307 0.0 9.7 0.00 0.00 0.00 56 1011.0
20260505025802 20 96 0.0 6.4 0.00 0.00 0.00 58 1011.1
20260505025304 20 228 0.0 6.4 0.00 0.00 0.00 56 1011.0
20260505024801 20 270 3.2 6.4 0.00 0.00 0.00 56 1010.9
20260505024300 20 271 0.0 9.7 0.00 0.00 0.00 58 1010.9
20260505023801 21 271 3.2 16.1 0.00 0.00 0.00 57 1010.8
20260505023302 21 273 0.0 16.1 0.00 0.00 0.00 58 1010.5
20260505022806 21 269 6.4 16.1 0.00 0.00 0.00 57 1010.7
20260505022309 21 252 3.2 16.1 0.00 0.00 0.00 58 1010.8
20260505021804 22 231 4.8 11.3 0.00 0.00 0.00 54 1010.7
20260505021303 22 229 6.4 11.3 0.00 0.00 0.00 55 1010.7
20260505020802 22 284 3.2 4.8 0.00 0.00 0.00 55 1010.7
20260505020306 22 284 0.0 6.4 0.00 0.00 0.00 57 1010.7
20260505015803 22 284 0.0 6.4 0.00 0.00 0.00 57 1010.7
20260505015303 22 256 1.6 14.5 0.00 0.00 0.00 58 1010.6
20260505014803 22 250 0.0 14.5 0.00 0.00 0.00 58 1010.7
20260505014301 22 229 3.2 11.3 0.00 0.00 0.00 57 1010.7
20260505013901 22 254 3.2 14.5 0.00 0.00 0.00 57 1010.8
20260505012804 22 244 8.0 16.1 0.00 0.00 0.00 56 1010.9
20260505012311 23 243 4.8 12.9 0.00 0.00 0.00 59 1010.7
20260505011805 22 216 6.4 12.9 0.00 0.00 0.00 57 1010.9
20260505011321 23 246 8.0 12.9 0.00 0.00 0.00 57 1010.9
20260505010803 23 257 3.2 14.5 0.00 0.00 0.00 57 1011.0
20260505010304 23 253 11.3 14.5 0.00 0.00 0.00 56 1010.9
20260505005803 23 233 4.8 14.5 0.00 0.00 0.00 56 1010.9
20260505005303 23 213 6.4 16.1 0.00 0.00 0.00 56 1011.0
20260505004823 23 295 8.0 14.5 0.00 0.00 0.00 56 1011.1
20260505004812 23 263 11.3 16.1 0.00 0.00 0.00 57 1011.2
20260505003305 23 257 8.0 12.9 0.00 0.00 0.00 57 1011.1
20260505002803 23 246 4.8 17.7 0.00 0.00 0.00 56 1011.1
20260505002305 23 227 1.6 17.7 0.00 0.00 0.00 56 1011.0
20260505001800 23 231 6.4 17.7 0.00 0.00 0.00 56 1011.2
20260505001311 23 278 6.4 14.5 0.00 0.00 0.00 56 1011.0
20260505000802 23 265 1.6 16.1 0.00 0.00 0.00 55 1011.1
20260505000302 23 219 8.0 17.7 0.00 0.00 0.00 56 1011.0
20260504235804 23 277 6.4 17.7 0.00 0.00 0.00 58 1011.1
20260504235305 23 188 3.2 22.5 0.00 0.00 0.00 56 1011.1
20260504234809 23 262 6.4 22.5 0.00 0.00 0.00 56 1011.0
20260504234626 23 201 16.1 17.7 0.00 0.00 0.00 55 1011.0
20260504233805 23 198 4.8 11.3 0.00 0.00 0.00 55 1011.3
20260504233301 23 203 4.8 14.5 0.00 0.00 0.00 57 1011.3
20260504232804 23 222 6.4 20.9 0.00 0.00 0.00 57 1011.1
20260504232303 22 270 8.0 20.9 0.00 0.00 0.00 57 1011.4
20260504231802 23 218 12.9 20.9 0.00 0.00 0.00 56 1011.3
20260504231301 22 181 4.8 20.9 0.00 0.00 0.00 56 1011.3
20260504230801 22 249 4.8 20.9 0.00 0.00 0.00 55 1011.4
20260504230616 22 213 8.0 20.9 0.00 0.00 0.00 57 1011.4
20260504225804 22 172 8.0 16.1 0.00 0.00 0.00 57 1011.4
20260504225304 22 220 8.0 16.1 0.00 0.00 0.00 59 1011.6
20260504224800 22 222 6.4 16.1 0.00 0.00 0.00 58 1011.4
20260504224304 22 214 6.4 16.1 0.00 0.00 0.00 57 1011.8
20260504224119 22 196 11.3 20.9 0.00 0.00 0.00 57 1011.9
20260504223302 22 189 11.3 20.9 0.00 0.00 0.00 56 1011.9
20260504222825 22 224 14.5 24.1 0.00 0.00 0.00 58 1011.8
20260504222302 22 214 8.0 24.1 0.00 0.00 0.00 58 1011.8
20260504222241 22 222 3.2 20.9 0.00 0.00 0.00 59 1011.8
20260504220801 21 201 8.0 17.7 0.00 0.00 0.00 60 1012.1
20260504220301 21 201 8.0 14.5 0.00 0.00 0.00 59 1012.3
20260504215807 22 198 4.8 16.1 0.00 0.00 0.00 58 1012.1
20260504215304 21 216 4.8 17.7 0.00 0.00 0.00 58 1012.2
20260504214802 21 301 4.8 17.7 0.00 0.00 0.00 58 1012.1
20260504214302 21 193 6.4 16.1 0.00 0.00 0.00 58 1012.2
20260504213801 21 201 12.9 16.1 0.00 0.00 0.00 61 1012.1
20260504213303 21 210 6.4 16.1 0.00 0.00 0.00 59 1012.3
20260504213114 21 168 6.4 16.1 0.00 0.00 0.00 59 1012.3
20260504212304 21 217 6.4 22.5 0.00 0.00 0.00 60 1012.4
20260504211801 21 223 11.3 22.5 0.00 0.00 0.00 59 1012.6
20260504211409 21 295 3.2 17.7 0.00 0.00 0.00 63 1012.6
20260504210314 21 218 11.3 14.5 0.00 0.00 0.00 61 1012.6
20260504205802 20 225 8.0 17.7 0.00 0.00 0.00 61 1012.9
20260504205301 20 289 9.7 17.7 0.00 0.00 0.00 63 1012.9
20260504204806 20 146 4.8 17.7 0.00 0.00 0.00 64 1013.0
20260504204302 20 261 12.9 17.7 0.00 0.00 0.00 64 1012.8
20260504203804 20 190 12.9 17.7 0.00 0.00 0.00 62 1013.0
20260504203301 20 236 9.7 20.9 0.00 0.00 0.00 63 1012.8
20260504203128 20 242 6.4 24.1 0.00 0.00 0.00 61 1013.4
20260504202705 20 310 6.4 24.1 0.00 0.00 0.00 64 1013.0
20260504202117 20 262 11.3 22.5 0.00 0.00 0.00 66 1013.2
20260504201302 20 253 9.7 22.5 0.00 0.00 0.00 65 1013.1
20260504200803 20 250 1.6 16.1 0.00 0.00 0.00 63 1012.9
20260504200306 20 223 9.7 16.1 0.00 0.00 0.00 65 1013.0
20260504200129 20 216 6.4 22.5 0.00 0.00 0.00 64 1013.2
20260504195301 19 236 4.8 22.5 0.00 0.00 0.00 65 1013.1
20260504194804 19 280 4.8 20.9 0.00 0.00 0.00 66 1013.2
20260504194301 18 253 1.6 17.7 0.00 0.00 0.00 67 1013.3
20260504193802 19 265 1.6 17.7 0.00 0.00 0.00 68 1013.3
20260504193301 19 260 6.4 20.9 0.00 0.00 0.00 64 1013.5
20260504192804 19 278 14.5 20.9 0.00 0.00 0.00 66 1013.2
20260504192301 19 240 4.8 16.1 0.00 0.00 0.00 68 1013.6
20260504191803 19 219 8.0 17.7 0.00 0.00 0.00 68 1013.3
20260504191619 19 235 8.0 17.7 0.00 0.00 0.00 65 1013.5
20260504190801 18 225 9.7 20.9 0.00 0.00 0.00 66 1013.5
20260504190302 19 243 9.7 20.9 0.00 0.00 0.00 65 1013.6
20260504185802 18 252 6.4 14.5 0.00 0.00 0.00 66 1013.7
20260504185653 18 242 1.6 12.9 0.00 0.00 0.00 67 1013.6